Find Raduga

NORAD ID: 16250 Int'l Des: 1985-107 Owner: GUKOS Country: SU operational
HEOCIRCULAR

Live-Position

3D-Globus wird geladen...

Über Raduga

Beschreibung wird geladen...

Nächste Überflüge

Passes for default location (London). Set your location on the main map for personalized predictions.

Höhenverlauf

Loading altitude history...

Zweizeiliger Elementsatz

1 16250U 85107A 26121.93353882 -.00000322 00000-0 00000-0 0 9996
2 16250 9.6854 318.6647 0012447 233.6446 107.4648 1.00136289151208
Epoch: 1. Mai 2026 • Age: 6 hours

Aktueller Status

Höhe 35874.9 km
Geschwindigkeit 3.07 km/s
Subsatellitenpunkt 8.92°N, 103.4°E
Startdatum 15. Nov. 1985
Alter 40.4 years
Typ other

Technische Details

Klassifizierung Payload
Masse 1965.00 kg
Trockenmasse 1800.00 kg
Gesamtmasse 1965.00 kg
Länge 5.50 m
Durchmesser 2.50 m
Spannweite 9.50 m
Form Step Cyl + 2 Pan
Hersteller NPOPM
Bus-Typ Raduga
Phasenstatus In Orbit
Besitzer/Staat GUKOS/SU

Most Searched